Tri-Cities, TN

8:06 AM EST on December 08, 2019 (GMT -0500)
Tri-Cities Regional Tennessee / Virginia

Weather History for KTRI - October, 2019

Change the Weather History Date:

Friday, October 4, 2019

  Actual Average Record
Temperature  
Mean Temperature 74 °F 60 °F  
Max Temperature 88 °F 73 °F 88 °F (2019)
Min Temperature 60 °F 48 °F 28 °F (1974)
Degree Days  
Heating Degree Days 0 6  
Month to date heating degree days 0 21  
Since 1 July heating degree days 0 74  
Cooling Degree Days 9 1  
Month to date cooling degree days 48 4  
Year to date cooling degree days 1433 972  
Growing Degree Days 24 (Base 50)    
Moisture  
Dew Point 55 °F    
Average Humidity 63    
Maximum Humidity 97    
Minimum Humidity 29    
Precipitation  
Precipitation 0.00 in 0.07 in 1.77 in (1972)
Month to date precipitation 0.00 0.27  
Year to date precipitation 41.61 32.71  
Snow  
Snow 0.00 in 0.00 in - ()
Month to date snowfall 0.0 0.0  
Since 1 July snowfall 0.0 0.0  
Since 1 September snowfall 0.0 0.0  
Snow Depth 0.00 in    
Sea Level Pressure  
Sea Level Pressure 30.06 in    
Wind  
Wind Speed 2 mph (North)    
Max Wind Speed 10 mph    
Max Gust Speed 14 mph    
Visibility 10 miles    
Events      
T = Trace of Precipitation, MM = Missing Value Source: NWS Daily Summary

Daily Weather History Graph

Daily Weather History Graph

Search for Another Location

Airport or City:

Astronomy

Oct. 04, 2019 Rise Set
Actual Time 7:27 AM EDT 7:09 PM EDT
Civil Twilight 7:01 AM EDT 7:34 PM EDT
Nautical Twilight 6:31 AM EDT 8:04 PM EDT
Astronomical Twilight 6:01 AM EDT 8:34 PM EDT
Moon 1:48 PM EDT (10/4) 11:46 PM EDT (10/4)
Length of Visible Light 12h 33m
Length of Day
11h 41m
Waxing Crescent, 39% of the Moon is Illuminated
Oct 4
Waxing Crescent
Oct 5
First Quarter
Oct 13
Full
Oct 21
Last Quarter
Oct 27
New

Hourly Weather History & Observations

Time (EDT) Temp. Heat Index Dew Point Humidity Pressure Visibility Wind Dir Wind Speed Gust Speed Precip Events Conditions
12:53 AM 64.9 °F - 60.1 °F 84% 30.01 in 10.0 mi Calm Calm - N/A   Clear
1:53 AM 64.0 °F - 60.1 °F 87% 30.01 in 10.0 mi Calm Calm - N/A   Clear
2:53 AM 63.0 °F - 60.1 °F 90% 30.02 in 10.0 mi Calm Calm - N/A   Clear
3:53 AM 62.1 °F - 59.0 °F 90% 30.01 in 10.0 mi Calm Calm - N/A   Clear
4:53 AM 63.0 °F - 60.1 °F 90% 30.03 in 10.0 mi Calm Calm - N/A   Clear
5:53 AM 61.0 °F - 59.0 °F 93% 30.04 in 9.0 mi Calm Calm - N/A   Clear
6:53 AM 61.0 °F - 57.9 °F 90% 30.06 in 8.0 mi Calm Calm - N/A   Partly Cloudy
7:53 AM 61.0 °F - 57.9 °F 90% 30.08 in 10.0 mi Calm Calm - N/A   Partly Cloudy
8:53 AM 66.9 °F - 62.1 °F 84% 30.09 in 10.0 mi Calm Calm - N/A   Clear
9:53 AM 72.0 °F - 63.0 °F 73% 30.09 in 10.0 mi Calm Calm - N/A   Clear
10:53 AM 79.0 °F - 63.0 °F 58% 30.09 in 10.0 mi Calm Calm - N/A   Partly Cloudy
11:53 AM 81.0 °F 81.7 °F 61.0 °F 50% 30.08 in 10.0 mi Calm Calm - N/A   Scattered Clouds
12:53 PM 84.9 °F 83.9 °F 57.0 °F 38% 30.07 in 10.0 mi NNW 8.1 mph - N/A   Scattered Clouds
1:53 PM 84.9 °F 83.7 °F 55.9 °F 37% 30.06 in 10.0 mi WNW 6.9 mph - N/A   Scattered Clouds
2:53 PM 84.9 °F 83.2 °F 53.1 °F 33% 30.03 in 10.0 mi Variable 3.5 mph - N/A   Scattered Clouds
3:53 PM 87.1 °F 84.9 °F 53.1 °F 31% 30.02 in 10.0 mi North 5.8 mph - N/A   Mostly Cloudy
4:53 PM 86.0 °F - 51.1 °F 30% 30.02 in 10.0 mi Variable 5.8 mph - N/A   Mostly Cloudy
5:53 PM 84.0 °F - 48.9 °F 29% 30.03 in 10.0 mi Variable 4.6 mph - N/A   Mostly Cloudy
6:53 PM 78.1 °F - 46.0 °F 32% 30.06 in 10.0 mi NNE 6.9 mph - N/A   Mostly Cloudy
7:53 PM 73.9 °F - 45.0 °F 35% 30.07 in 10.0 mi NNE 5.8 mph - N/A   Mostly Cloudy
8:53 PM 70.0 °F - 46.0 °F 42% 30.08 in 10.0 mi Calm Calm - N/A   Mostly Cloudy
9:53 PM 68.0 °F - 46.9 °F 47% 30.10 in 10.0 mi Calm Calm - N/A   Scattered Clouds
10:53 PM 63.0 °F - 48.0 °F 58% 30.11 in 10.0 mi Calm Calm - N/A   Scattered Clouds
11:53 PM 61.0 °F - 48.0 °F 62% 30.11 in 10.0 mi Calm Calm - N/A   Scattered Clouds